This is the latest recevied weather packets stored in our database for station/object KF7PIZ. If no packets are shown the sender has not sent any weather packets the latest 10 day(s).
| Time | Temp. | Humidity | Pressure | Rain* | Wind** | Luminosity | Snow |
|---|---|---|---|---|---|---|---|
| 1777622575 | 7.22° C | 53% | 1019.1 hPa | 0 mm | - | 0 W/m² | - |
| 1777622272 | 7.22° C | 52% | 1019.1 hPa | 0 mm | - | 0 W/m² | - |
| 1777621969 | 7.22° C | 54% | 1019.1 hPa | 0 mm | - | 0 W/m² | - |
| 1777621664 | 7.78° C | 55% | 1019 hPa | 0 mm | - | 0 W/m² | - |
| 1777621361 | 7.78° C | 54% | 1019 hPa | 0 mm | - | 0 W/m² | - |
| 1777621061 | 7.78° C | 53% | 1019.1 hPa | 0 mm | - | 0 W/m² | - |
| 1777620757 | 7.78° C | 52% | 1019 hPa | 0 mm | - | 0 W/m² | - |
| 1777620454 | 7.78° C | 51% | 1018.9 hPa | 0 mm | - | 0 W/m² | - |
| 1777620151 | 8.33° C | 51% | 1019.1 hPa | 0 mm | - | 0 W/m² | - |
| 1777619847 | 8.33° C | 50% | 1019 hPa | 0 mm | - | 0 W/m² | - |
| 1777619543 | 8.89° C | 47% | 1018.9 hPa | 0 mm | - | 0 W/m² | - |
| 1777619238 | 8.89° C | 45% | 1019 hPa | 0 mm | - | 0 W/m² | - |
| 1777618933 | 8.89° C | 47% | 1018.9 hPa | 0 mm | - | 0 W/m² | - |
| 1777618628 | 8.89° C | 47% | 1018.8 hPa | 0 mm | - | 0 W/m² | - |
| 1777618323 | 9.44° C | 45% | 1019 hPa | 0 mm | - | 0 W/m² | - |
| 1777618021 | 9.44° C | 43% | 1018.8 hPa | 0 mm | - | 0 W/m² | - |
| 1777617717 | 10° C | 43% | 1018.8 hPa | 0 mm | - | 0 W/m² | - |
| 1777617417 | 10° C | 43% | 1018.6 hPa | 0 mm | - | 0 W/m² | - |
| 1777617116 | 10° C | 45% | 1018.8 hPa | 0 mm | - | 0 W/m² | - |
| 1777616811 | 10° C | 46% | 1018.5 hPa | 0 mm | - | 0 W/m² | - |
| 1777616506 | 10° C | 48% | 1018.7 hPa | 0 mm | - | 0 W/m² | - |
| 1777616202 | 10° C | 47% | 1018.5 hPa | 0 mm | - | 0 W/m² | - |
| 1777615899 | 10.56° C | 45% | 1018.5 hPa | 0 mm | - | 0 W/m² | - |
| 1777615596 | 10.56° C | 47% | 1018.5 hPa | 0 mm | - | 0 W/m² | - |
| 1777615292 | 10.56° C | 45% | 1018.5 hPa | 0 mm | - | 0 W/m² | - |
* Rain latest hour (hover to see other rain measurements)
** Current wind speed in m/s (hover to see current wind gust speed)